Location: Unnamed
(23.5608°S, 46.6833°W)
Time: 02:36:27
(UTC-03:00)

LilacSat-2 - Visible Passes

Search period start: 16 July 2024 00:00
Search period end: 26 July 2024 00:00
Orbit: 478 x 492 km, 97.5° (Epoch: 15 July)

Date Brightness Start Highest point End Pass type
(mag) Time Alt. Az. Time Alt. Az. Time Alt. Az.
16 Jul ? 18:05:38 10° SSE 18:09:03 39° E 18:12:27 10° N visible
17 Jul ? 06:05:20 10° N 06:08:52 75° WNW 06:12:28 10° SSW visible
17 Jul ? 19:15:36 10° SSW 19:17:56 16° WSW 19:20:15 10° WNW visible
18 Jul ? 05:41:15 10° NNE 05:44:37 41° ESE 05:48:02 10° S visible
18 Jul ? 18:50:23 10° S 18:53:44 37° WSW 18:57:05 10° NW visible
19 Jul ? 05:17:55 10° ENE 05:20:25 18° ESE 05:22:56 10° SSE visible
19 Jul ? 18:25:50 10° SSE 18:29:28 86° ENE 18:33:05 10° N visible
20 Jul ? 18:01:47 10° SSE 18:05:07 33° E 18:08:24 10° NNE visible
21 Jul ? 06:01:19 10° NNE 06:04:53 89° W 06:08:29 10° SSW visible
21 Jul ? 19:11:19 10° SSW 19:13:55 19° WSW 19:16:32 10° WNW visible
22 Jul ? 05:37:17 10° NE 05:40:34 35° ESE 05:43:52 10° S visible
22 Jul ? 18:46:11 10° S 18:49:39 43° WSW 18:53:05 10° NNW visible
23 Jul ? 05:14:06 10° ENE 05:16:17 16° ESE 05:18:30 10° SE visible
23 Jul ? 18:21:39 10° SSE 18:25:17 73° E 18:28:53 10° N visible
24 Jul ? 06:21:39 10° N 06:25:01 40° W 06:28:25 10° SSW visible
25 Jul ? 05:57:01 10° NNE 06:00:34 77° ESE 06:04:09 10° S visible
25 Jul ? 19:06:43 10° SSW 19:09:35 22° WSW 19:12:26 10° NW visible
